Regional Weather Roundup
Issued by NWS

Home | Current Version | Previous Version | Graphics & Text | Print | Product List | Glossary On
Versions: 1 2 3 4 5 6 7 8 9 10 11 12 13 14 15 16 17 18 19 20 21 22 23 24 25 26 27 28 29 30 31 32 33 34 35 36 37 38 39 40 41 42 43 44 45 46 47 48 49 50
000
ASUS43 KLOT 240504
RWRIL

ILLINOIS REGIONAL WEATHER ROUNDUP
NATIONAL WEATHER SERVICE CHICAGO/ROMEOVILLE IL
1200 AM CDT WED MAY 24 2017

NOTE: "FAIR" INDICATES FEW OR NO CLOUDS BELOW 12,000 FEET WITH NO
SIGNIFICANT WEATHER AND/OR OBSTRUCTIONS TO VISIBILITY.

* THESE STATIONS ARE NOT UNDER NWS QUALITY CONTROL. THEY ALSO MAY NOT
  REPORT WEATHER SUCH AS PRECIPITATION OR FOG.

ILZ001-002-007-009-015-016-024-240600-
NORTHWEST ILLINOIS

CITY           SKY/WX    TMP DP  RH WIND       PRES   REMARKS
MOLINE         PTCLDY    52  48  86 W3        29.67F
STERLING*      CLOUDY    53  52  96 CALM      29.68F
$$

ILZ003-004-008-010-011-017-018-240600-
NORTH CENTRAL ILLINOIS

CITY           SKY/WX    TMP DP  RH WIND       PRES   REMARKS
ROCKFORD       FOG       51  50  96 NE3       29.70F VSB 1/2
FREEPORT*      CLOUDY    50  50  99 NE5       29.70F FOG
DE KALB*       DRIZZLE   53  53  98 CALM      29.69S
$$

ILZ005-006-012>014-019>023-240600-
NORTHEAST ILLINOIS

CITY           SKY/WX    TMP DP  RH WIND       PRES   REMARKS
CHICAGO-OHARE  LGT RAIN  56  53  90 N5        29.67S FOG
CHICAGO-MIDWAY LGT RAIN  57  55  93 E5        29.67S FOG
AURORA         LGT RAIN  55  54  96 NW6       29.68S FOG
LANSING*       CLOUDY    55  55  99 N3        29.67F
JOLIET*        LGT RAIN  57  57  99 CALM      29.66F
WAUKEGAN       CLOUDY    52  52 100 NE3       29.68F FOG
DUPAGE AIRPORT LGT RAIN  55  55 100 CALM      29.67S FOG
WHEELING       LGT RAIN  54  54 100 N5        29.68F
MORRIS*        LGT RAIN  55  54  95 CALM      29.66F
ROMEOVILLE*    LGT RAIN  55  55 100 E7        29.67S
NORTHERLY ISL    N/A     55  51  86 MISG        N/A
$$

LMZ740>746-240600-
SOUTHERN LAKE MICHIGAN

STATION/POSITION SKY/WX   TEMP    WIND        PRES    VSBY  WAVE
                          AIR SEA DIR/SP/G                  HT/PER
                          (F)     (DEG/KT/KT) (MB)    (MI)  (FT/S)
SOUTHERN BUOY              50 45   30/  4/  6 1006.2          0
WILMETTE HARBOR            52 53                N/A           0
HARRISON CRIB              55      40/  7/  8   N/A
BURNHAM HARBOR             54      10/  4/  5   N/A
CALUMET HARBOR             54      10/  3/  4 1004.5F
BURNS HARBOR               54      60/  8/ 12 1005.4F
MICHIGAN CITY              54      30/  9/ 10   N/A
MICHIGAN CITY 6N           54 53   60/  8/ 10   N/A           1/ 2
ST. JOSEPH                 56 56   60/ 10/ 12 1005.0F         1/ 2
$$

ILZ025>027-034>036-040-047-049-050-058-095>099-240600-
WEST-CENTRAL ILLINOIS

CITY           SKY/WX    TMP DP  RH WIND       PRES   REMARKS
QUINCY         PTCLDY    53  49  86 W3        29.70F
GALESBURG*     CLEAR     51  48  90 CALM      29.68F
MACOMB*        MOCLDY    51  49  95 NW5       29.72S
$$

ILZ028>032-037-038-041>044-048-051>054-059>061-240600-
CENTRAL ILLINOIS

CITY           SKY/WX    TMP DP  RH WIND       PRES   REMARKS
BLOOMINGTON    CLOUDY    55  54  96 NW3       29.68F
DECATUR        CLOUDY    58  56  93 NW5       29.66F
PEORIA         CLOUDY    56  56 100 N3        29.67F
LACON*         CLOUDY    54  54 100 CALM      29.67F
LINCOLN*       PTCLDY    55  55  97 CALM      29.67F
SPRINGFIELD    PTCLDY    57  55  93 NW7       29.68F
TAYLORVILLE    NOT AVBL
$$

ILZ033-039-045-046-055>057-062-063-240600-
EAST-CENTRAL ILLINOIS

CITY           SKY/WX    TMP DP  RH WIND       PRES   REMARKS
CHAMPAIGN      LGT RAIN  58  55  90 NE8       29.66S FOG
MATTOON        CLOUDY    58  57  97 N8        29.64F
$$

ILZ079-100>102-240600-
SOUTHWEST ILLINOIS

CITY           SKY/WX    TMP DP  RH WIND       PRES   REMARKS
BELLEVILLE     MOCLDY    56  55  95 NW3       29.68F
CAHOKIA*       PTCLDY    57  54  89 CALM      29.67F
SPARTA*        CLOUDY    58  55  89 CALM      29.69S
$$

ILZ064>066-069>071-074>076-080>082-084>086-088>090-092>094-240600-
SOUTH-CENTRAL ILLINOIS

CITY           SKY/WX    TMP DP  RH WIND       PRES   REMARKS
CARBONDALE     CLOUDY    59  55  87 NW7       29.66F
CAIRO*         CLOUDY    63  58  85 NW5       29.67R
EFFINGHAM*     CLOUDY    59  58  99 W5        29.67F
MARION         CLOUDY    61  57  88 N3        29.67S
MT. VERNON       N/A     58  56  93 CALM      29.66F
CENTRALIA*     CLOUDY    59  56  89 NW5       29.66F
SALEM*         CLOUDY    59  56  90 W3        29.66F
$$

ILZ067-068-072-073-078-083-087-091-240600-
SOUTHEAST ILLINOIS

CITY           SKY/WX    TMP DP  RH WIND       PRES   REMARKS
LAWRENCEVILLE  CLOUDY    64  56  75 NW12      29.63F
FLORA*         CLOUDY    62  57  84 N7        29.66S
FAIRFIELD*     LGT RAIN  60  58  95 NW5       29.63F
HARRISBURG*    CLOUDY    61  58  89 NW5       29.65F
ROBINSON*      CLOUDY    60  55  84 NW9       29.65F
CARMI*         CLOUDY    64  58  81 N8        29.63F
$$

ABBREVIATIONS USED IN REMARKS
   TC - TEMPERATURE IN CELSIUS
  WCI - WIND CHILL INDEX
   HX - HEAT INDEX
  VSB - VISIBILITY
$$





USA.gov is the U.S. government's official web portal to all federal, state and local government web resources and services.